CW4629 Weather Reports


time (UTC)temp
C
wind
direction
speed
KPH
gust
KPH
rain 1hr
cm
rain 24hr
cm
rain mn
cm
humidity
%
barometer
mb
20260902230530 33 251 11.3 20.9 0.00 0.00 0.00 6 1013.8
20260902225617 33 233 17.7 32.2 0.00 0.00 0.00 7 1013.7
20260902224629 33 226 12.9 17.7 0.00 0.00 0.00 6 1013.7
20260902222731 33 217 19.3 32.2 0.00 0.00 0.00 7 1014.0
20260902221729 33 233 9.7 14.5 0.00 0.00 0.00 6 1014.1
20260902220729 33 215 19.3 29.0 0.00 0.00 0.00 7 1014.4
20260902215815 33 237 14.5 20.9 0.00 0.00 0.00 9 1014.4
20260902214833 32 216 11.3 17.7 0.00 0.00 0.00 9 1014.4
20260902213829 32 226 17.7 29.0 0.00 0.00 0.00 9 1014.7
20260902212814 32 235 19.3 32.2 0.00 0.00 0.00 11 1014.9
20260902210913 33 175 14.5 22.5 0.00 0.00 0.00 11 1014.9
20260902203914 33 218 19.3 29.0 0.00 0.00 0.00 11 1015.6
20260902203816 33 220 14.5 22.5 0.00 0.00 0.00 10 1015.4
20260902202912 32 217 12.9 27.4 0.00 0.00 0.00 12 1015.4
20260902201915 32 243 14.5 25.7 0.00 0.00 0.00 11 1015.5
20260902200928 32 250 9.7 19.3 0.00 0.00 0.00 11 1015.7
20260902195913 32 232 12.9 17.7 0.00 0.00 0.00 13 1015.9
20260902195814 32 198 11.3 20.9 0.00 0.00 0.00 13 1015.9
20260902193828 32 229 16.1 24.1 0.00 0.00 0.00 14 1016.4
20260902192830 32 214 14.5 22.5 0.00 0.00 0.00 14 1016.6
20260902191915 31 223 11.3 17.7 0.00 0.00 0.00 14 1016.4
20260902191012 31 187 12.9 22.5 0.00 0.00 0.00 15 1016.6
20260902190029 31 219 14.5 24.1 0.00 0.00 0.00 14 1016.8
20260902185012 31 302 4.8 6.4 0.00 0.00 0.00 16 1016.7
20260902184013 31 242 9.7 14.5 0.00 0.00 0.00 17 1017.0
20260902183012 30 227 9.7 12.9 0.00 0.00 0.00 17 1017.1
20260902182011 31 252 8.0 12.9 0.00 0.00 0.00 18 1017.3
20260902181016 30 242 6.4 12.9 0.00 0.00 0.00 19 1017.3
20260902180930 30 229 11.3 17.7 0.00 0.00 0.00 19 1017.4
20260902174113 30 219 8.0 14.5 0.00 0.00 0.00 21 1017.6
20260902174014 30 222 6.4 14.5 0.00 0.00 0.00 21 1017.6
20260902173030 31 235 6.4 11.3 0.00 0.00 0.00 22 1017.5
20260902172112 31 253 3.2 8.0 0.00 0.00 0.00 23 1017.7
20260902171115 31 337 0.0 1.6 0.00 0.00 0.00 23 1017.6
20260902170129 31 22 0.0 1.6 0.00 0.00 0.00 24 1017.5
20260902165115 31 45 1.6 3.2 0.00 0.00 0.00 27 1017.4
20260902164112 29 80 0.0 0.0 0.00 0.00 0.00 29 1017.7
20260902163129 30 184 4.8 6.4 0.00 0.00 0.00 30 1017.5
20260902163013 30 180 0.0 3.2 0.00 0.00 0.00 31 1017.5
20260902162014 29 202 0.0 1.6 0.00 0.00 0.00 31 1017.5
20260902161013 28 112 0.0 0.0 0.00 0.00 0.00 33 1017.7
20260902160013 27 67 0.0 3.2 0.00 0.00 0.00 35 1017.6
20260902155028 26 270 3.2 3.2 0.00 0.00 0.00 36 1017.6
20260902154113 26 276 0.0 1.6 0.00 0.00 0.00 38 1017.5
20260902153211 27 292 0.0 3.2 0.00 0.00 0.00 37 1017.7
20260902152214 26 247 0.0 0.0 0.00 0.00 0.00 38 1017.6
20260902151213 25 202 0.0 0.0 0.00 0.00 0.00 41 1017.6
20260902145313 23 292 0.0 0.0 0.00 0.00 0.00 39 1017.6
20260902144312 22 247 0.0 1.6 0.00 0.00 0.00 41 1017.5
20260902143327 22 292 0.0 0.0 0.00 0.00 0.00 47 1017.4
20260902142331 22 202 0.0 0.0 0.00 0.00 0.00 47 1017.3
20260902141413 21 156 1.6 4.8 0.00 0.00 0.00 47 1017.2
20260902140428 20 22 0.0 0.0 0.00 0.00 0.00 50 1017.3
20260902135413 20 247 0.0 0.0 0.00 0.00 0.00 51 1017.2
20260902134512 20 225 0.0 0.0 0.00 0.00 0.00 48 1017.1
20260902132612 19 202 0.0 0.0 0.00 0.00 0.00 50 1017.2
20260902131613 18 292 0.0 1.6 0.00 0.00 0.00 58 1017.0
20260902130614 18 337 0.0 0.0 0.00 0.00 0.00 61 1016.8
20260902125628 18 337 0.0 0.0 0.00 0.00 0.00 60 1016.8
20260902124629 19 337 0.0 0.0 0.00 0.00 0.00 59 1016.6
20260902123714 19 337 0.0 0.0 0.00 0.00 0.00 59 1016.5
20260902122812 19 337 0.0 0.0 0.00 0.00 0.00 60 1016.4
20260902122711 19 337 0.0 0.0 0.00 0.00 0.00 60 1016.5
20260902121729 19 337 0.0 0.0 0.00 0.00 0.00 57 1016.5
20260902120811 19 67 0.0 0.0 0.00 0.00 0.00 58 1016.4
20260902115813 20 67 0.0 0.0 0.00 0.00 0.00 55 1016.5
20260902114829 20 90 1.6 1.6 0.00 0.00 0.00 54 1016.3
20260902112812 21 337 0.0 0.0 0.00 0.00 0.00 53 1016.3
20260902111813 20 337 3.2 4.8 0.00 0.00 0.00 53 1016.2
20260902111728 20 343 3.2 4.8 0.00 0.00 0.00 52 1016.1
20260902110813 21 45 0.0 1.6 0.00 0.00 0.00 51 1016.1
20260902105827 21 45 0.0 0.0 0.00 0.00 0.00 50 1016.0
20260902103928 21 45 0.0 1.6 0.00 0.00 0.00 48 1016.1
20260902103827 21 45 3.2 4.8 0.00 0.00 0.00 48 1016.1
20260902102829 22 67 0.0 0.0 0.00 0.00 0.00 48 1016.0
20260902101913 22 67 0.0 0.0 0.00 0.00 0.00 47 1016.0
20260902100912 22 67 0.0 0.0 0.00 0.00 0.00 44 1015.9
20260902095914 22 67 0.0 1.6 0.00 0.00 0.00 46 1016.0
20260902094011 23 67 0.0 0.0 0.00 0.00 0.00 43 1015.9
20260902093027 22 67 0.0 1.6 0.00 0.00 0.00 46 1015.9
20260902092111 22 67 0.0 0.0 0.00 0.00 0.00 45 1015.9
20260902091113 22 47 3.2 6.4 0.00 0.00 0.00 48 1016.0
20260902085114 23 90 0.0 0.0 0.00 0.00 0.00 45 1015.9
20260902084127 22 90 3.2 4.8 0.00 0.00 0.00 46 1015.7
20260902082227 22 330 0.0 1.6 0.00 0.00 0.00 47 1016.0
20260902081227 23 337 0.0 0.0 0.00 0.00 0.00 46 1015.9
20260902075329 23 326 1.6 3.2 0.00 0.00 0.00 45 1015.6
20260902074410 23 292 3.2 4.8 0.00 0.00 0.00 44 1015.6
20260902074328 23 292 3.2 3.2 0.00 0.00 0.00 43 1015.7
20260902073312 24 67 0.0 0.0 0.00 0.00 0.00 42 1015.4
20260902073227 24 67 0.0 1.6 0.00 0.00 0.00 41 1015.5
20260902072312 24 315 0.0 0.0 0.00 0.00 0.00 40 1015.4
20260902071326 25 202 0.0 1.6 0.00 0.00 0.00 38 1015.4
20260902070411 25 185 4.8 8.0 0.00 0.00 0.00 37 1015.3
20260902065511 25 337 0.0 0.0 0.00 0.00 0.00 37 1015.3
20260902064526 26 337 0.0 1.6 0.00 0.00 0.00 36 1015.3
20260902063611 26 360 0.0 1.6 0.00 0.00 0.00 36 1015.3
20260902061713 27 156 1.6 4.8 0.00 0.00 0.00 33 1015.1
20260902060711 28 82 3.2 6.4 0.00 0.00 0.00 31 1014.9
20260902055724 28 113 4.8 8.0 0.00 0.00 0.00 31 1015.0
20260902053725 27 132 3.2 6.4 0.00 0.00 0.00 31 1014.9
20260902052807 28 136 1.6 4.8 0.00 0.00 0.00 30 1014.9
20260902051809 28 132 1.6 4.8 0.00 0.00 0.00 30 1015.2
20260902045924 28 154 4.8 11.3 0.00 0.00 0.00 28 1015.2
20260902044809 28 146 6.4 11.3 0.00 0.00 0.00 29 1014.9
20260902042925 28 152 3.2 8.0 0.00 0.00 0.00 29 1014.9
20260902041909 29 149 4.8 11.3 0.00 0.00 0.00 29 1014.8
20260902040926 29 162 4.8 11.3 0.00 0.00 0.00 29 1014.6
20260902040008 29 150 4.8 11.3 0.00 0.00 0.00 29 1014.6
20260902034024 29 175 4.8 8.0 0.00 0.00 0.00 28 1014.3
20260902033109 29 136 3.2 4.8 0.00 0.00 0.00 26 1014.3
20260902030110 30 195 8.0 14.5 0.00 0.00 0.00 25 1014.0
20260902030023 30 197 9.7 14.5 0.00 0.00 0.00 24 1014.0
20260902025027 30 202 8.0 11.3 0.00 0.00 0.00 25 1014.0
20260902024123 30 181 4.8 4.8 0.00 0.00 0.00 25 1013.8
20260902023109 30 188 4.8 8.0 0.00 0.00 0.00 24 1013.6
20260902021210 31 205 8.0 17.7 0.00 0.00 0.00 22 1013.7
20260902020308 31 192 8.0 11.3 0.00 0.00 0.00 23 1013.6
20260902013324 32 205 9.7 16.1 0.00 0.00 0.00 20 1013.9
20260902012408 32 207 12.9 20.9 0.00 0.00 0.00 21 1013.8
20260902010409 33 210 12.9 19.3 0.00 0.00 0.00 20 1014.0
20260902005424 33 222 16.1 27.4 0.00 0.00 0.00 20 1014.0
20260902003410 33 221 17.7 25.7 0.00 0.00 0.00 19 1014.1
20260902002507 33 211 14.5 20.9 0.00 0.00 0.00 19 1013.9
20260902002409 33 216 14.5 22.5 0.00 0.00 0.00 20 1013.9
20260902001425 33 209 14.5 22.5 0.00 0.00 0.00 19 1014.0
20260902000509 33 214 17.7 27.4 0.00 0.00 0.00 20 1014.0
20260901235608 33 218 14.5 22.5 0.00 0.00 0.00 18 1014.0
20260901234610 33 228 17.7 25.7 0.00 0.00 0.00 18 1014.2
20260901233623 33 185 14.5 24.1 0.00 0.00 0.00 19 1014.1
20260901232625 33 222 11.3 20.9 0.00 0.00 0.00 18 1014.3
20260901231708 33 200 11.3 20.9 0.00 0.00 0.00 17 1014.3